Location: Berua Church
(35.0423°N, 88.5987°W)
Time: 03:45:07
(UTC+00:00)

AQUARIUS - Pass Details

Date: 08 December 2019
Orbit: 650 x 653 km, 98.0° (Epoch: 17 January)

Event Time Altitude Azimuth Distance (km) Brightness Sun altitude
Rises 23:03:50 0° 152° (SSE) 2,960 7.5 -4.7°
Reaches altitude 10° 23:06:05 10° 146° (SE) 2,053 6.6 -5.2°
Maximum altitude 23:10:22 46° 74° (ENE) 877 4.4 -6.0°
Drops below altitude 10° 23:14:40 10° 1° (N) 2,066 6.5 -6.8°
Sets 23:16:57 0° 355° (N) 2,980 7.4 -7.2°
